Find Local Weather

World > North America > United States > Michigan

Lowell, Michigan Regional Weather

Lat: 42.93N, Lon: 85.35W
Wx Zone: MIZ057
Feedback
Expires:201809240400;;115284
ASUS43 KDTX 240310
RWRMI 
MICHIGAN HOURLY REGIONAL WEATHER ROUNDUP
NATIONAL WEATHER SERVICE DETROIT/PONTIAC MI
1100 PM EDT SUN SEP 23 2018

NOTE: "FAIR" INDICATES FEW OR NO CLOUDS BELOW 12,000 FEET WITH NO
SIGNIFICANT WEATHER AND/OR OBSTRUCTION TO VISIBILITY.


MIZ043>046-050>051-056>058-064>065-071>073-077>080-240400-
SOUTHWEST LOWER MICHIGAN
  
CITY           SKY/WX    TMP DP  RH WIND       PRES   REMARKS
BATTLE CREEK   FAIR      60  49  66 E7        30.20S                  
BENTON HARBOR  FAIR      57  49  74 E8        30.15S                  
BIG RAPIDS     FAIR      55  47  77 E9        30.23R                  
COLDWATER      FAIR      58  51  78 E5        30.20R                  
FREMONT        FAIR      58  47  67 E5        30.19S                  
HOLLAND        FAIR      58  50  75 E7        30.18S                  
GRAND RAPIDS   FAIR      56  51  84 E7        30.20S                  
IONIA          FAIR      56  47  72 E6        30.21S                  
KALAMAZOO      FAIR      58  50  75 E5        30.19S                  
LUDINGTON      FOG       48  47  97 CALM      30.19R VSB 1/2          
MARSHALL       FAIR      58  51  77 CALM      30.20S                  
MOUNT PLEASANT FAIR      55  48  78 E5        30.24R                  
MUSKEGON       FAIR      57  48  72 E6        30.18S                  
SOUTH HAVEN    FAIR      57  52  82 E3        30.16S                  
$$

SKY/WX - Weather  TMP - Temperature  DP - Dew Point  RH - Relative Humidity
WIND - Wind Direction/Speed PRES - Barometric Pressure